Location: Appleton
(44.2618°N, 88.4157°W)
Time: 04:25:53
(UTC+00:00)

S-56A Canister/Altair - Pass Details

Date: 02 March 2021
Orbit: 632 x 2500 km, 38.9° (Epoch: 14 April)

Event Time Altitude Azimuth Distance (km) Brightness Sun altitude
Rises 18:06:19 0° 202° (SSW) 5,335 12.6 38.8°
Reaches altitude 10° 18:10:07 10° 193° (SSW) 4,575 12.7 38.8°
Maximum altitude 18:21:01 31° 138° (SE) 3,585 11.9 38.7°
Drops below altitude 10° 18:33:11 10° 84° (E) 5,152 11.7 38.5°
Sets 18:37:44 0° 75° (ENE) 6,090 11.9 38.3°
